Regional Weather Roundup
Issued by NWS Little Rock, AR

Home | Current Version | Previous Version | Graphics & Text | Print | Product List | Glossary On
Versions: 1 2 3 4 5 6 7 8 9 10 11 12 13 14 15 16 17 18 19 20 21 22 23 24 25 26 27 28 29 30 31 32 33 34 35 36 37 38 39 40 41 42 43 44 45 46 47 48 49 50
000
ASUS44 KLZK 260305
RWRLZK

WEATHER ROUNDUP FOR ARKANSAS
NATIONAL WEATHER SERVICE LITTLE ROCK AR
900 PM CST TUE NOV 25 2014

NOTE: "FAIR" INDICATES FEW OR NO CLOUDS BELOW 12,000 FEET WITH NO
SIGNIFICANT WEATHER AND/OR OBSTRUCTIONS TO VISIBILITY.

ARZ001-003-010-029-260400-
NORTHWEST ARKANSAS

CITY           SKY/WX    TMP DP  RH WIND       PRES   REMARKS
FAYETTEVILLE   MOCLDY    31  26  82 CALM      30.14F
FORT SMITH     PTCLDY    37  27  67 CALM      30.16S
HARRISON       CLEAR     33  21  61 S3        30.14F
BENTONVILLE    MOCLDY    36  23  60 SE5       30.14S
ROGERS         MOCLDY    36  23  59 S3        30.14S
SILOAM SPGS    CLOUDY    36  19  51 E3        30.14S
HIGHFILL       MOCLDY    34  25  69 CALM      30.13S
SPRINGDALE     CLEAR     36  25  64 W7        30.16S
$$

ARZ004-005-016-260400-
NORTH CENTRAL ARKANSAS

CITY           SKY/WX    TMP DP  RH WIND       PRES   REMARKS
BATESVILLE     CLEAR     34  23  64 CALM      30.19S
FLIPPIN        CLEAR     30  19  64 CALM      30.16F
MTN HOME       CLEAR     35  18  49 SE3       30.15F
$$

ARZ040-041-260400-
WEST CENTRAL ARKANSAS

CITY           SKY/WX    TMP DP  RH WIND       PRES   REMARKS
MENA             N/A     32  30  93 CALM      30.16F
MOUNT IDA      CLEAR     32  28  85 CALM      30.14F
$$

ARZ009-017-025-026-028-260400-
NORTHEAST ARKANSAS

CITY           SKY/WX    TMP DP  RH WIND       PRES   REMARKS
CORNING        FAIR      32  30  93 W3        30.20S FOG
JONESBORO      CLEAR     32  29  88 CALM      30.20S
NEWPORT        CLEAR     36  29  76 S6        30.22R
WALNUT RIDGE   CLEAR     36  27  69 S3        30.20R
BLYTHEVILLE    CLEAR     42  30  62 SE3       30.21S
$$

ARZ022-023-033-042-044-260400-
CENTRAL ARKANSAS

CITY           SKY/WX    TMP DP  RH WIND       PRES   REMARKS
LITTLE ROCK    CLEAR     38  25  59 CALM      30.20S
N LITTLE ROCK  CLEAR     41  25  51 CALM      30.20S
JACKSONVILLE   CLEAR     33  26  77 CALM      30.20R
SEARCY         CLEAR     33  27  78 CALM      30.22S
HOT SPRINGS    CLEAR     35  28  75 CALM      30.18F
RUSSELLVILLE   CLEAR     32  27  81 CALM      30.17F
CLINTON        FAIR      28  27  93 CALM      30.21S FOG
$$

ARZ036-260400-
EAST ARKANSAS

CITY           SKY/WX    TMP DP  RH WIND       PRES   REMARKS
WEST MEMPHIS   CLEAR     32  30  92 CALM      30.21R
$$

ARZ050-053-066-070-073-260400-
SOUTHWEST ARKANSAS

CITY           SKY/WX    TMP DP  RH WIND       PRES   REMARKS
ARKADELPHIA    FAIR      36  36 100 CALM      30.20S
CAMDEN         CLEAR     36  32  87 CALM      30.21R
TEXARKANA      CLEAR     46  29  51 E6        30.17F
EL DORADO      CLEAR     36  33  89 CALM      30.20S
DE QUEEN       CLEAR     34  32  92 CALM      30.15F
$$

ARZ056-057-069-260400-
SOUTHEAST ARKANSAS

CITY           SKY/WX    TMP DP  RH WIND       PRES   REMARKS
PINE BLUFF     CLEAR     38  30  73 CALM      30.21S
STUTTGART      CLEAR     39  30  70 S3        30.21S
MONTICELLO     CLEAR     34  30  85 NE5       30.21S WCI  30

$$




USA.gov is the U.S. government's official web portal to all federal, state and local government web resources and services.